date(mm/dd/yyyy),time(HH:MM:SS.SSS),time (unix sec),lat (dec. deg.), lon (dec. deg.), depth (m), alt (m)  
04/12/2014,14:51:18.291,1397314278.291,27.337655833333,-92.360836666667, 960.4,  3.9 
04/12/2014,14:51:23.775,1397314283.775,27.337661333333,-92.360841333333, 960.3,  3.9 
04/12/2014,14:51:29.463,1397314289.463,27.337655833333,-92.360843166667, 960.3,  4.0 
04/12/2014,14:51:35.150,1397314295.150,27.337662666667,-92.360850000000, 960.4,  4.0 
04/12/2014,14:51:46.385,1397314306.385,27.337658666667,-92.360846500000, 960.4,  4.0 
04/12/2014,14:51:51.854,1397314311.854,27.337665833333,-92.360850833333, 960.2,  4.1 
04/12/2014,14:51:57.542,1397314317.542,27.337671000000,-92.360845666667, 960.1,  4.2 
04/12/2014,14:52:03.011,1397314323.011,27.337665833333,-92.360837166667, 960.1,  4.2 
04/12/2014,14:52:08.698,1397314328.698,27.337665500000,-92.360846666667, 960.1,  4.3 
04/12/2014,14:52:14.386,1397314334.386,27.337663833333,-92.360840833333, 960.1,  4.3 
04/12/2014,14:52:19.855,1397314339.855,27.337664833333,-92.360838833333, 960.1,  4.3 
04/12/2014,14:52:25.542,1397314345.542,27.337669500000,-92.360851833333, 960.0,  4.4 
04/12/2014,14:52:31.011,1397314351.011,27.337667000000,-92.360833500000, 959.9,  4.4 
04/12/2014,14:52:36.730,1397314356.730,27.337670833333,-92.360839333333, 959.9,  4.4 
04/12/2014,14:52:42.183,1397314362.183,27.337676333333,-92.360851000000, 959.9,  4.4 
04/12/2014,14:53:15.965,1397314395.965,27.337673000000,-92.360841333333, 960.6,  3.8 
04/12/2014,14:53:21.434,1397314401.434,27.337660333333,-92.360838666667, 960.8,  3.6 
04/12/2014,14:53:27.121,1397314407.121,27.337654000000,-92.360837500000, 960.9,  3.5 
04/12/2014,14:53:32.809,1397314412.809,27.337657166667,-92.360832833333, 961.0,  3.5 
04/12/2014,14:53:38.278,1397314418.278,27.337658000000,-92.360835500000, 961.1,  3.4 
04/12/2014,14:53:43.965,1397314423.965,27.337659166667,-92.360838000000, 961.0,  3.4 
04/12/2014,14:53:49.434,1397314429.434,27.337658000000,-92.360837166667, 960.9,  3.5 
04/12/2014,14:53:55.121,1397314435.121,27.337658833333,-92.360843500000, 960.9,  3.5 
04/12/2014,14:54:00.590,1397314440.590,27.337664000000,-92.360838166667, 960.9,  3.5 
04/12/2014,14:54:06.278,1397314446.278,27.337658000000,-92.360827166667, 960.9,  3.6 
04/12/2014,14:54:11.965,1397314451.965,27.337652000000,-92.360818000000, 960.8,  3.7 
04/12/2014,14:54:17.450,1397314457.450,27.337651000000,-92.360828166667, 960.8,  3.7 
04/12/2014,14:54:23.137,1397314463.137,27.337662000000,-92.360831000000, 960.6,  3.8 
04/12/2014,14:54:28.622,1397314468.622,27.337672166667,-92.360833333333, 960.6,  3.8 
04/12/2014,14:54:34.309,1397314474.309,27.337670333333,-92.360842166667, 960.5,  3.9 
04/12/2014,14:54:39.856,1397314479.856,27.337658166667,-92.360837333333, 960.5,  4.0 
04/12/2014,14:54:51.232,1397314491.232,27.337655333333,-92.360836166667, 960.3,  4.2 
04/12/2014,14:55:02.388,1397314502.388,27.337659833333,-92.360820000000, 960.1,  4.3 
04/12/2014,14:55:13.544,1397314513.544,27.337668666667,-92.360827000000, 960.2,  4.2 
04/12/2014,14:55:19.013,1397314519.013,27.337670833333,-92.360833166667, 960.3,  4.2 
04/12/2014,14:55:24.701,1397314524.701,27.337666166667,-92.360823833333, 960.2,  4.3 
04/12/2014,14:55:30.185,1397314530.185,27.337659000000,-92.360824666667, 960.2,  4.4 
04/12/2014,14:55:35.857,1397314535.857,27.337670500000,-92.360829833333, 960.1,  4.4 
04/12/2014,14:55:41.529,1397314541.529,27.337668333333,-92.360828833333, 960.2,  4.3 
04/12/2014,14:55:47.029,1397314547.029,27.337657000000,-92.360830333333, 960.2,  4.2 
04/12/2014,14:55:52.732,1397314552.732,27.337656166667,-92.360822500000, 960.3,  4.2 
04/12/2014,14:55:58.217,1397314558.217,27.337658333333,-92.360821666667, 960.3,  4.3 
04/12/2014,14:56:03.889,1397314563.889,27.337657166667,-92.360822166667, 960.2,  4.4 
04/12/2014,14:56:09.436,1397314569.436,27.337645666667,-92.360814166667, 960.2,  4.4 
04/12/2014,14:56:15.123,1397314575.123,27.337666500000,-92.360831666667, 960.1,  4.3 
04/12/2014,14:56:20.795,1397314580.795,27.337663833333,-92.360840166667, 960.2,  4.3 
04/12/2014,14:56:26.264,1397314586.264,27.337659500000,-92.360824000000, 960.3,  4.2 
04/12/2014,14:56:31.967,1397314591.967,27.337652833333,-92.360819333333, 960.3,  4.2 
04/12/2014,14:56:37.436,1397314597.436,27.337654166667,-92.360812833333, 960.3,  4.3 
04/12/2014,14:56:43.124,1397314603.124,27.337657000000,-92.360811500000, 960.3,  4.3 
04/12/2014,14:56:54.280,1397314614.280,27.337661833333,-92.360821333333, 960.2,  4.3 
04/12/2014,14:56:59.968,1397314619.968,27.337666833333,-92.360827500000, 960.3,  4.2 
04/12/2014,14:57:05.436,1397314625.436,27.337657500000,-92.360818500000, 960.4,  4.2 
04/12/2014,14:57:16.608,1397314636.608,27.337662000000,-92.360823000000, 960.3,  4.3 
04/12/2014,14:57:22.296,1397314642.296,27.337657333333,-92.360821833333, 960.3,  4.4 
04/12/2014,14:57:27.781,1397314647.781,27.337678166667,-92.360824500000, 960.2,  4.4 
04/12/2014,14:57:33.468,1397314653.468,27.337671000000,-92.360832166667, 960.2,  4.3 
04/12/2014,14:57:39.156,1397314659.156,27.337657833333,-92.360817666667, 960.2,  4.3 
04/12/2014,14:57:44.687,1397314664.687,27.337658166667,-92.360814166667, 960.3,  4.4 
04/12/2014,14:57:50.375,1397314670.375,27.337657166667,-92.360812833333, 960.3,  4.4 
04/12/2014,14:57:55.844,1397314675.844,27.337672000000,-92.360823166667, 960.2,  4.4 
04/12/2014,14:58:01.531,1397314681.531,27.337662666667,-92.360815000000, 960.2,  4.5 
04/12/2014,14:58:07.000,1397314687.000,27.337679000000,-92.360819666667, 960.1,  4.5 
04/12/2014,14:58:12.703,1397314692.703,27.337668666667,-92.360816000000, 960.2,  4.4 
04/12/2014,14:58:23.844,1397314703.844,27.337662500000,-92.360811833333, 960.3,  4.4 
04/12/2014,14:58:29.532,1397314709.532,27.337674000000,-92.360822333333, 960.3,  4.4 
04/12/2014,14:58:35.016,1397314715.016,27.337682333333,-92.360814833333, 960.2,  4.5 
04/12/2014,14:58:40.719,1397314720.719,27.337662500000,-92.360811333333, 960.1,  4.6 
04/12/2014,14:58:46.204,1397314726.204,27.337672166667,-92.360815833333, 960.1,  4.5 
04/12/2014,14:58:51.876,1397314731.876,27.337665166667,-92.360810166667, 960.2,  4.4 
04/12/2014,14:59:03.048,1397314743.048,27.337682166667,-92.360817000000, 960.3,  4.4 
04/12/2014,14:59:08.736,1397314748.736,27.337660000000,-92.360805500000, 960.2,  4.5 
04/12/2014,14:59:14.267,1397314754.267,27.337657000000,-92.360800833333, 960.2,  4.6 
04/12/2014,14:59:19.955,1397314759.955,27.337664833333,-92.360816833333, 960.1,  4.6 
04/12/2014,14:59:25.423,1397314765.423,27.337667333333,-92.360814833333, 960.2,  4.4 
04/12/2014,14:59:31.111,1397314771.111,27.337656000000,-92.360817833333, 960.3,  4.4 
04/12/2014,14:59:36.799,1397314776.799,27.337661166667,-92.360809500000, 960.3,  4.4 
04/12/2014,14:59:42.267,1397314782.267,27.337660000000,-92.360809666667, 960.2,  4.5 
04/12/2014,14:59:47.955,1397314787.955,27.337673833333,-92.360816666667, 960.2,  4.6 
04/12/2014,14:59:59.112,1397314799.112,27.337663000000,-92.360798500000, 960.1,  4.5 
04/12/2014,15:00:04.580,1397314804.580,27.337664833333,-92.360808166667, 960.2,  4.4 
04/12/2014,15:00:10.268,1397314810.268,27.337674666667,-92.360815166667, 960.3,  4.4 
04/12/2014,15:00:15.971,1397314815.971,27.337660000000,-92.360811666667, 960.3,  4.4 
04/12/2014,15:00:21.456,1397314821.456,27.337684000000,-92.360818333333, 960.3,  4.5 
04/12/2014,15:00:27.128,1397314827.128,27.337665333333,-92.360812500000, 960.3,  4.5 
04/12/2014,15:00:32.612,1397314832.612,27.337670166667,-92.360816000000, 960.3,  4.4 
04/12/2014,15:00:38.300,1397314838.300,27.337674500000,-92.360817000000, 960.3,  4.4 
04/12/2014,15:00:43.847,1397314843.847,27.337663000000,-92.360805333333, 960.3,  4.4 
04/12/2014,15:00:49.534,1397314849.534,27.337662500000,-92.360800500000, 960.4,  4.4 
04/12/2014,15:00:55.003,1397314855.003,27.337673666667,-92.360804000000, 960.4,  4.4 
04/12/2014,15:01:00.691,1397314860.691,27.337678000000,-92.360816333333, 960.3,  4.5 
04/12/2014,15:01:06.378,1397314866.378,27.337674666667,-92.360801500000, 960.3,  4.6 
04/12/2014,15:01:11.847,1397314871.847,27.337676333333,-92.360810166667, 960.2,  4.5 
04/12/2014,15:01:17.535,1397314877.535,27.337668333333,-92.360798833333, 960.3,  4.4 
04/12/2014,15:01:28.707,1397314888.707,27.337668166667,-92.360807000000, 960.4,  4.4 
04/12/2014,15:01:34.160,1397314894.160,27.337673833333,-92.360810500000, 960.4,  4.5 
04/12/2014,15:01:39.848,1397314899.848,27.337675666667,-92.360806833333, 960.3,  4.6 
04/12/2014,15:01:45.535,1397314905.535,27.337685166667,-92.360812166667, 960.2,  4.6 
04/12/2014,15:01:51.020,1397314911.020,27.337662000000,-92.360802500000, 960.2,  4.5 
04/12/2014,15:01:56.723,1397314916.723,27.337671000000,-92.360804333333, 960.3,  4.4 
04/12/2014,15:02:02.223,1397314922.223,27.337660666667,-92.360803000000, 960.3,  4.4 
04/12/2014,15:02:07.880,1397314927.880,27.337656333333,-92.360804833333, 960.4,  4.4 
04/12/2014,15:02:13.427,1397314933.427,27.337671333333,-92.360802500000, 960.3,  4.5 
04/12/2014,15:02:19.114,1397314939.114,27.337673333333,-92.360812000000, 960.3,  4.6 
04/12/2014,15:02:24.802,1397314944.802,27.337673666667,-92.360806000000, 960.2,  4.5 
04/12/2014,15:02:30.271,1397314950.271,27.337673166667,-92.360817166667, 960.3,  4.5 
04/12/2014,15:02:35.958,1397314955.958,27.337673500000,-92.360808000000, 960.3,  4.4 
04/12/2014,15:02:41.427,1397314961.427,27.337683000000,-92.360809666667, 960.3,  4.4 
04/12/2014,15:02:47.115,1397314967.115,27.337676333333,-92.360813333333, 960.4,  4.4 
04/12/2014,15:02:52.584,1397314972.584,27.337665166667,-92.360805000000, 960.3,  4.5 
04/12/2014,15:02:58.272,1397314978.272,27.337657500000,-92.360803333333, 960.2,  4.6 
04/12/2014,15:03:03.959,1397314983.959,27.337660666667,-92.360799500000, 960.2,  4.6 
04/12/2014,15:03:09.428,1397314989.428,27.337658166667,-92.360802166667, 960.3,  4.5 
04/12/2014,15:03:15.116,1397314995.116,27.337682666667,-92.360813000000, 960.3,  4.4 
04/12/2014,15:03:20.600,1397315000.600,27.337671000000,-92.360810166667, 960.4,  4.4 
04/12/2014,15:03:26.288,1397315006.288,27.337665166667,-92.360805166667, 960.4,  4.5 
04/12/2014,15:03:31.772,1397315011.772,27.337672333333,-92.360811666667, 960.3,  4.6 
04/12/2014,15:03:37.460,1397315017.460,27.337667000000,-92.360802833333, 960.3,  4.6 
04/12/2014,15:03:43.148,1397315023.148,27.337690833333,-92.360810666667, 960.2,  4.6 
04/12/2014,15:03:48.695,1397315028.695,27.337680833333,-92.360807666667, 960.3,  4.4 
04/12/2014,15:03:54.382,1397315034.382,27.337674666667,-92.360817333333, 960.3,  4.4 
04/12/2014,15:03:59.851,1397315039.851,27.337661333333,-92.360802333333, 960.4,  4.5 
04/12/2014,15:04:05.539,1397315045.539,27.337671333333,-92.360812500000, 960.3,  4.5 
04/12/2014,15:04:11.008,1397315051.008,27.337673833333,-92.360812166667, 960.3,  4.6 
04/12/2014,15:04:16.695,1397315056.695,27.337676000000,-92.360806833333, 960.2,  4.6 
04/12/2014,15:04:22.383,1397315062.383,27.337662500000,-92.360799500000, 960.2,  4.5 
04/12/2014,15:04:27.852,1397315067.852,27.337673333333,-92.360806166667, 960.3,  4.4 
04/12/2014,15:04:33.540,1397315073.540,27.337668500000,-92.360804833333, 960.4,  4.4 
04/12/2014,15:04:39.008,1397315079.008,27.337668666667,-92.360794666667, 960.4,  4.4 
04/12/2014,15:04:44.712,1397315084.712,27.337671833333,-92.360802166667, 960.3,  4.6 
04/12/2014,15:04:50.212,1397315090.212,27.337663000000,-92.360806833333, 960.3,  4.6 
04/12/2014,15:04:55.868,1397315095.868,27.337666500000,-92.360804333333, 960.2,  4.6 
04/12/2014,15:05:01.556,1397315101.556,27.337686500000,-92.360808833333, 960.3,  4.5 
04/12/2014,15:05:07.040,1397315107.040,27.337674000000,-92.360801333333, 960.3,  4.4 
04/12/2014,15:05:12.728,1397315112.728,27.337676333333,-92.360805666667, 960.4,  4.4 
04/12/2014,15:05:18.228,1397315118.228,27.337672833333,-92.360803666667, 960.4,  4.5 
04/12/2014,15:05:23.963,1397315123.963,27.337665166667,-92.360803000000, 960.3,  4.6 
04/12/2014,15:05:29.432,1397315129.432,27.337660000000,-92.360806500000, 960.4,  4.5 
04/12/2014,15:05:35.119,1397315135.119,27.337661000000,-92.360800666667, 960.3,  4.5 
04/12/2014,15:05:40.791,1397315140.791,27.337666333333,-92.360800166667, 960.4,  4.4 
04/12/2014,15:05:46.276,1397315146.276,27.337675166667,-92.360804166667, 960.4,  4.4 
04/12/2014,15:05:51.963,1397315151.963,27.337663000000,-92.360796833333, 960.5,  4.4 
04/12/2014,15:05:57.432,1397315157.432,27.337671833333,-92.360798833333, 960.4,  4.5 
04/12/2014,15:06:03.120,1397315163.120,27.337672500000,-92.360792500000, 960.4,  4.6 
04/12/2014,15:06:08.589,1397315168.589,27.337678000000,-92.360799000000, 960.3,  4.5 
04/12/2014,15:06:14.277,1397315174.277,27.337661500000,-92.360796833333, 960.3,  4.4 
04/12/2014,15:06:19.964,1397315179.964,27.337678500000,-92.360807666667, 960.4,  4.4 
04/12/2014,15:06:25.464,1397315185.464,27.337666166667,-92.360798833333, 960.5,  4.4 
04/12/2014,15:06:31.136,1397315191.136,27.337678666667,-92.360794333333, 960.6,  4.4 
04/12/2014,15:06:36.621,1397315196.621,27.337671000000,-92.360793166667, 960.6,  4.4 
04/12/2014,15:06:42.309,1397315202.309,27.337672833333,-92.360799333333, 960.6,  4.4 
04/12/2014,15:06:47.856,1397315207.856,27.337669000000,-92.360801500000, 960.4,  4.4 
04/12/2014,15:06:53.543,1397315213.543,27.337671666667,-92.360792333333, 960.4,  4.4 
04/12/2014,15:06:59.012,1397315219.012,27.337669333333,-92.360794333333, 960.4,  4.4 
04/12/2014,15:07:04.700,1397315224.700,27.337681000000,-92.360795333333, 960.4,  4.4 
04/12/2014,15:07:10.387,1397315230.387,27.337672500000,-92.360794500000, 960.4,  4.5 
04/12/2014,15:07:15.856,1397315235.856,27.337682500000,-92.360801833333, 960.4,  4.6 
04/12/2014,15:07:21.544,1397315241.544,27.337672500000,-92.360794166667, 960.3,  4.6 
04/12/2014,15:07:27.013,1397315247.013,27.337669166667,-92.360802833333, 960.1,  4.8 
04/12/2014,15:07:32.700,1397315252.700,27.337660166667,-92.360797333333, 960.0,  4.8 
04/12/2014,15:07:38.185,1397315258.185,27.337670333333,-92.360795833333, 959.9,  4.9 
04/12/2014,15:07:43.857,1397315263.857,27.337666166667,-92.360795833333, 960.0,  4.9 
04/12/2014,15:07:49.545,1397315269.545,27.337674000000,-92.360801166667, 960.0,  5.0 
04/12/2014,15:07:55.029,1397315275.029,27.337676166667,-92.360793833333, 959.9,  5.0 
04/12/2014,15:08:00.717,1397315280.717,27.337674333333,-92.360802833333, 959.9,  5.0 
04/12/2014,15:08:06.233,1397315286.233,27.337673166667,-92.360802000000, 959.9,  4.9 
04/12/2014,15:08:11.889,1397315291.889,27.337675666667,-92.360798500000, 960.0,  4.8 
04/12/2014,15:08:17.436,1397315297.436,27.337678833333,-92.360788500000, 960.0,  4.8 
04/12/2014,15:08:23.124,1397315303.124,27.337673500000,-92.360797000000, 960.1,  4.8 
04/12/2014,15:08:28.811,1397315308.811,27.337687833333,-92.360799000000, 960.2,  4.8 
04/12/2014,15:08:34.280,1397315314.280,27.337682000000,-92.360796666667, 960.3,  4.7 
04/12/2014,15:08:39.968,1397315319.968,27.337661833333,-92.360802333333, 960.2,  4.6 
04/12/2014,15:08:45.437,1397315325.437,27.337673833333,-92.360808166667, 960.2,  4.5 
04/12/2014,15:08:51.124,1397315331.124,27.337671500000,-92.360817833333, 960.3,  4.4 
04/12/2014,15:08:56.593,1397315336.593,27.337675166667,-92.360819166667, 960.5,  4.3 
04/12/2014,15:09:02.265,1397315342.265,27.337682666667,-92.360832166667, 960.8,  3.9 
04/12/2014,15:09:07.968,1397315347.968,27.337673666667,-92.360828333333, 960.7,  4.0 
04/12/2014,15:09:13.437,1397315353.437,27.337662000000,-92.360829833333, 960.5,  4.2 
04/12/2014,15:09:19.125,1397315359.125,27.337662666667,-92.360831500000, 960.4,  4.2 
04/12/2014,15:09:24.610,1397315364.610,27.337672166667,-92.360834166667, 960.7,  3.9 
04/12/2014,15:09:30.297,1397315370.297,27.337682666667,-92.360836166667, 960.7,  3.9 
04/12/2014,15:09:35.782,1397315375.782,27.337687000000,-92.360828333333, 960.8,  4.0 
04/12/2014,15:09:41.469,1397315381.469,27.337665666667,-92.360816666667, 960.5,  4.2 
04/12/2014,15:09:47.157,1397315387.157,27.337660666667,-92.360829333333, 960.4,  4.2 
04/12/2014,15:09:52.704,1397315392.704,27.337654666667,-92.360844833333, 960.5,  4.0 
04/12/2014,15:09:58.391,1397315398.391,27.337644333333,-92.360860666667, 960.9,  3.5 
04/12/2014,15:10:03.860,1397315403.860,27.337649000000,-92.360885000000, 961.3,  3.0 
04/12/2014,15:10:09.532,1397315409.532,27.337617666667,-92.360881333333, 961.8,  2.5 
04/12/2014,15:10:15.001,1397315415.001,27.337612166667,-92.360878166667, 961.8,  2.5 
04/12/2014,15:10:20.704,1397315420.704,27.337611166667,-92.360868833333, 961.8,  2.6 
04/12/2014,15:10:26.392,1397315426.392,27.337622833333,-92.360871500000, 961.8,  2.7 
04/12/2014,15:10:31.845,1397315431.845,27.337615666667,-92.360878666667, 961.7,  2.6 
04/12/2014,15:10:37.548,1397315437.548,27.337620166667,-92.360873166667, 961.8,  2.6 
04/12/2014,15:10:43.017,1397315443.017,27.337609000000,-92.360867500000, 961.9,  2.6 
04/12/2014,15:10:48.721,1397315448.721,27.337600166667,-92.360875000000, 961.7,  2.7 
04/12/2014,15:10:54.221,1397315454.221,27.337614666667,-92.360881000000, 961.9,  2.6 
04/12/2014,15:10:59.877,1397315459.877,27.337612166667,-92.360891666667, 961.8,  2.6 
04/12/2014,15:11:05.565,1397315465.565,27.337599333333,-92.360888166667, 961.7,  2.6 
04/12/2014,15:11:11.049,1397315471.049,27.337590000000,-92.360911500000, 961.6,  2.8 
04/12/2014,15:11:16.737,1397315476.737,27.337586000000,-92.360905333333, 961.6,  2.7 
04/12/2014,15:11:22.221,1397315482.221,27.337584000000,-92.360912166667, 961.9,  2.5 
04/12/2014,15:11:27.956,1397315487.956,27.337575166667,-92.360905166667, 961.9,  2.6 
04/12/2014,15:11:33.424,1397315493.424,27.337573166667,-92.360907166667, 961.8,  2.7 
04/12/2014,15:11:39.112,1397315499.112,27.337573333333,-92.360913833333, 961.7,  2.8 
04/12/2014,15:11:44.800,1397315504.800,27.337574666667,-92.360926333333, 961.6,  2.9 
04/12/2014,15:11:50.269,1397315510.269,27.337572500000,-92.360919666667, 961.7,  2.7 
04/12/2014,15:11:55.753,1397315515.753,27.337576666667,-92.360923333333, 961.9,  2.5 
04/12/2014,15:12:01.222,1397315521.222,27.337572333333,-92.360919666667, 961.9,  2.6 
04/12/2014,15:12:06.722,1397315526.722,27.337572500000,-92.360930166667, 961.8,  2.8 
04/12/2014,15:12:12.206,1397315532.206,27.337565500000,-92.360927333333, 961.7,  2.8 
04/12/2014,15:12:17.738,1397315537.738,27.337571333333,-92.360934833333, 961.8,  2.8 
04/12/2014,15:12:23.191,1397315543.191,27.337565333333,-92.360928500000, 961.7,  2.8 
04/12/2014,15:12:28.691,1397315548.691,27.337571666667,-92.360925333333, 961.7,  2.7 
04/12/2014,15:12:34.129,1397315554.129,27.337560833333,-92.360930666667, 961.8,  2.6 
04/12/2014,15:12:39.613,1397315559.613,27.337571500000,-92.360937333333, 961.8,  2.7 
04/12/2014,15:12:45.098,1397315565.098,27.337564500000,-92.360940166667, 961.8,  2.8 
04/12/2014,15:12:50.785,1397315570.785,27.337561000000,-92.360938333333, 961.7,  2.9 
04/12/2014,15:12:56.270,1397315576.270,27.337563833333,-92.360943000000, 961.7,  2.9 
04/12/2014,15:13:01.801,1397315581.801,27.337555333333,-92.360935666667, 961.7,  2.8 
04/12/2014,15:13:07.270,1397315587.270,27.337561166667,-92.360941833333, 961.8,  2.7 
04/12/2014,15:13:12.739,1397315592.739,27.337553833333,-92.360925333333, 961.9,  2.6 
04/12/2014,15:13:18.223,1397315598.223,27.337557500000,-92.360939166667, 961.9,  2.8 
04/12/2014,15:13:23.692,1397315603.692,27.337558500000,-92.360920666667, 961.8,  2.8 
04/12/2014,15:13:29.177,1397315609.177,27.337562166667,-92.360914500000, 961.7,  2.9 
04/12/2014,15:13:34.661,1397315614.661,27.337553666667,-92.360943500000, 961.7,  2.9 
04/12/2014,15:13:40.193,1397315620.193,27.337558333333,-92.360954833333, 961.7,  2.8 
04/12/2014,15:13:45.693,1397315625.693,27.337562500000,-92.360973833333, 961.8,  2.8 
04/12/2014,15:13:51.130,1397315631.130,27.337551500000,-92.360957833333, 961.8,  2.8 
04/12/2014,15:13:56.599,1397315636.599,27.337549333333,-92.360970333333, 961.8,  2.8 
04/12/2014,15:14:02.287,1397315642.287,27.337559833333,-92.360977833333, 961.8,  2.8 
04/12/2014,15:14:07.771,1397315647.771,27.337556166667,-92.360963500000, 961.7,  2.9 
04/12/2014,15:14:13.256,1397315653.256,27.337550000000,-92.360965666667, 961.7,  2.8 
04/12/2014,15:14:18.740,1397315658.740,27.337547833333,-92.360954166667, 961.7,  2.8 
04/12/2014,15:14:24.225,1397315664.225,27.337552333333,-92.360954833333, 961.7,  2.7 
04/12/2014,15:14:40.694,1397315680.694,27.337560833333,-92.360969000000, 961.8,  2.8 
04/12/2014,15:14:46.163,1397315686.163,27.337562666667,-92.360975166667, 961.9,  2.7 
04/12/2014,15:14:51.647,1397315691.647,27.337563500000,-92.360974333333, 961.9,  2.6 
04/12/2014,15:14:57.132,1397315697.132,27.337565333333,-92.360958000000, 962.0,  2.6 
04/12/2014,15:15:02.694,1397315702.694,27.337562666667,-92.360966500000, 962.0,  2.5 
04/12/2014,15:15:08.132,1397315708.132,27.337548666667,-92.360941500000, 962.0,  2.6 
04/12/2014,15:15:13.819,1397315713.819,27.337551333333,-92.360948166667, 962.1,  2.6 
04/12/2014,15:15:19.288,1397315719.288,27.337562500000,-92.360947500000, 962.0,  2.7 
04/12/2014,15:15:24.757,1397315724.757,27.337566333333,-92.360943000000, 961.9,  2.8 
04/12/2014,15:15:30.242,1397315730.242,27.337561333333,-92.360935333333, 961.9,  2.7 
04/12/2014,15:15:35.726,1397315735.726,27.337567333333,-92.360946333333, 962.0,  2.5 
04/12/2014,15:15:41.210,1397315741.210,27.337572166667,-92.360955166667, 962.0,  2.6 
04/12/2014,15:15:52.211,1397315752.211,27.337565333333,-92.360952833333, 962.4,  2.2 
04/12/2014,15:15:57.680,1397315757.680,27.337554666667,-92.360943500000, 962.4,  2.3 
04/12/2014,15:16:03.148,1397315763.148,27.337562333333,-92.360947500000, 962.3,  2.3 
04/12/2014,15:16:08.633,1397315768.633,27.337563666667,-92.360932500000, 962.6,  2.0 
04/12/2014,15:16:14.117,1397315774.117,27.337566666667,-92.360953500000, 962.7,  1.9 
04/12/2014,15:16:19.602,1397315779.602,27.337555166667,-92.360935666667, 962.7,  1.9 
04/12/2014,15:16:25.289,1397315785.289,27.337560500000,-92.360939333333, 962.9,  1.8 
04/12/2014,15:16:30.821,1397315790.821,27.337566833333,-92.360940833333, 963.1,  1.7 
04/12/2014,15:16:36.290,1397315796.290,27.337552833333,-92.360926166667, 963.4,  1.4 
04/12/2014,15:16:41.759,1397315801.759,27.337546000000,-92.360935166667, 963.6,  1.1 
04/12/2014,15:16:47.227,1397315807.227,27.337563500000,-92.360952000000, 963.4,  1.2 
04/12/2014,15:16:52.727,1397315812.727,27.337560166667,-92.360941666667, 963.4,  1.2 
04/12/2014,15:16:58.212,1397315818.212,27.337554500000,-92.360938500000, 963.6,  1.1 
04/12/2014,15:17:03.696,1397315823.696,27.337546166667,-92.360922166667, 963.6,  1.2 
04/12/2014,15:17:09.212,1397315829.212,27.337548500000,-92.360916833333, 963.7,  1.1 
04/12/2014,15:17:14.681,1397315834.681,27.337552500000,-92.360919833333, 963.7,  1.1 
04/12/2014,15:17:20.150,1397315840.150,27.337557000000,-92.360931166667, 963.6,  1.1 
04/12/2014,15:17:25.619,1397315845.619,27.337555333333,-92.360920666667, 963.5,  1.1 
04/12/2014,15:17:31.088,1397315851.088,27.337550166667,-92.360919166667, 963.7,  1.0 
04/12/2014,15:17:36.775,1397315856.775,27.337554500000,-92.360918666667, 963.7,  0.9 
04/12/2014,15:17:42.260,1397315862.260,27.337563333333,-92.360935000000, 963.7,  1.1 
04/12/2014,15:17:47.744,1397315867.744,27.337561166667,-92.360938500000, 963.6,  1.2 
04/12/2014,15:17:53.291,1397315873.291,27.337542166667,-92.360949166667, 963.4,  1.4 
04/12/2014,15:17:58.760,1397315878.760,27.337548500000,-92.360971000000, 963.4,  1.2 
04/12/2014,15:18:04.229,1397315884.229,27.337546666667,-92.360963833333, 963.4,  1.1 
04/12/2014,15:18:09.698,1397315889.698,27.337541000000,-92.360966333333, 963.4,  1.0 
04/12/2014,15:18:15.182,1397315895.182,27.337551166667,-92.360998333333, 963.5,  1.0 
04/12/2014,15:18:20.651,1397315900.651,27.337526666667,-92.360981500000, 963.5,  1.0 